Location: Bucharest
(44.4268°N, 26.1025°E)
Time: 20:24:31
(UTC+03:00)

CUTE 1.7 + AOD 2 - Pass Details

Date: 28 June 2022
Orbit: 589 x 608 km, 97.7° (Epoch: 10 August)

Event Time Altitude Azimuth Distance (km) Brightness Sun altitude
Rises 04:33:14 0° 21° (NNE) 2,856 ? -9.0°
Reaches altitude 10° 04:35:36 10° 32° (NNE) 1,945 ? -8.7°
Maximum altitude 04:39:25 32° 96° (E) 1,023 ? -8.3°
Drops below altitude 10° 04:43:11 10° 161° (SSE) 1,920 ? -7.8°
Sets 04:45:30 0° 171° (S) 2,813 ? -7.5°
